This is the latest recevied weather packets stored in our database for station/object KF6ILA. If no packets are shown the sender has not sent any weather packets the latest 10 day(s).
| Time | Temp. | Humidity | Pressure | Rain* | Wind** | Luminosity | Snow |
|---|---|---|---|---|---|---|---|
| 1777672256 | 22.78° C | 43% | 1013 hPa | 0 mm | - | 895 W/m² | - |
| 1777669583 | 22.78° C | 47% | 1013.4 hPa | 0 mm | - | 972 W/m² | - |
| 1777669286 | 22.22° C | - | - | 0 mm | - | - | - |
| 1777668989 | 22.22° C | 45% | 1013.4 hPa | 0 mm | - | 988 W/m² | - |
| 1777667207 | 22.22° C | 42% | 1013.7 hPa | 0 mm | - | 1023 W/m² | - |
| 1777666910 | 22.22° C | 45% | 1013.6 hPa | 0 mm | - | 1021 W/m² | - |
| 1777666019 | 22.22° C | 47% | 1013.7 hPa | 0 mm | - | 1037 W/m² | - |
| 1777662455 | 22.78° C | 33% | 1013.9 hPa | 0 mm | - | 1039 W/m² | - |
| 1777660970 | 22.78° C | 38% | 1014.2 hPa | 0 mm | - | 1020 W/m² | - |
| 1777659188 | 23.33° C | 37% | 1014.3 hPa | 0 mm | - | 956 W/m² | - |
| 1777658000 | 22.78° C | 37% | 1014.6 hPa | 0 mm | - | 930 W/m² | - |
| 1777656812 | 22.78° C | 35% | 1013.8 hPa | 0 mm | - | 879 W/m² | - |
| 1777656515 | 22.78° C | 36% | 1013.8 hPa | 0 mm | - | 870 W/m² | - |
| 1777656218 | 22.78° C | 37% | 1013.8 hPa | 0 mm | - | 856 W/m² | - |
| 1777655921 | 22.22° C | 35% | 1013.8 hPa | 0 mm | - | 842 W/m² | - |
| 1777655624 | 22.22° C | 33% | 1013.9 hPa | 0 mm | - | 828 W/m² | - |
| 1777655327 | 22.22° C | 37% | 1013.9 hPa | 0 mm | - | 814 W/m² | - |
| 1777655030 | 22.22° C | 38% | 1013.9 hPa | 0 mm | - | 802 W/m² | - |
| 1777654733 | 22.22° C | 41% | 1013.8 hPa | 0 mm | - | 786 W/m² | - |
| 1777654436 | 21.67° C | 37% | 1013.9 hPa | 0 mm | - | 772 W/m² | - |
| 1777654139 | 21.67° C | 37% | 1013.9 hPa | 0 mm | - | 759 W/m² | - |
| 1777653545 | 21.67° C | 42% | 1013.8 hPa | 0 mm | - | 733 W/m² | - |
| 1777652357 | 22.22° C | 43% | 1013.9 hPa | 0 mm | - | 670 W/m² | - |
| 1777652060 | 22.22° C | 35% | 1013.9 hPa | 0 mm | - | 656 W/m² | - |
| 1777651763 | 22.22° C | 35% | 1013.9 hPa | 0 mm | - | 636 W/m² | - |
* Rain latest hour (hover to see other rain measurements)
** Current wind speed in m/s (hover to see current wind gust speed)